Location: �terpigny
(49.8910°N, 2.9249°E)
Time: 07:41:26
(UTC+00:00)

NANOSAT C BR1 - Pass Details

Date: 02 July 2022
Orbit: 584 x 599 km, 98.0° (Epoch: 14 August)

Event Time Altitude Azimuth Distance (km) Brightness Sun altitude
Rises 01:19:51 0° 22° (NNE) 2,851 ? -14.5°
Reaches altitude 10° 01:22:15 10° 33° (NNE) 1,946 ? -14.4°
Maximum altitude 01:26:00 31° 96° (E) 1,070 ? -14.2°
Enters shadow 01:29:24 12° 156° (SSE) 1,815 ? -13.9°
